Погода в Горнозаводском

Россия / Ставропольский край     44°01′34″N   43°56′34″E
темп.,
°C
ветер,
м/с
пор.,
м/с
влажн.,
%
обл.,
%
осадки,
мм/ч
давл.,
гПа
погр.,
м
21 июня, пн
пн2100:00+19всв355255 0.0 101187
03:00+18с22550 0.0 101211
06:00+19сз23650 0.0 101184
09:00+24ссв11540 0.0 1011472
12:00+30в34470 0.0 1010949
15:00+33вюв47370 0.0 10081570
18:00+27в713354 0.0 1009494
21:00+22св363788 0.0 101199
22 июня, вт
вт2200:00+19с22380 0.0 101122
03:00+18ссв22430 0.0 101111
06:00+19ссз11520 0.0 101152
09:00+25всв11410 0.0 1011464
12:00+30в34390 0.0 1010938
15:00+33ююв36304 0.0 10081272
18:00+31юв124582 0.0 1008120
21:00+24всв4113653 0.0 1009185
23 июня, ср
ср2300:00+20сз34430 0.0 101043
03:00+18сз475282 0.0 1011100
06:00+19зсз36667 0.0 1011141
09:00+26сз33450 0.0 1012494
12:00+30ссз32360 0.0 10121036
15:00+32с33340 0.0 10111554
18:00+29зсз46490 0.0 1011172
21:00+23ссв35520 0.0 101278
24 июня, чт
чт2400:00+20ссв33480 0.0 101229
03:00+18ссз12570 0.0 101212
06:00+19сз23650 0.0 101387
09:00+26сз34470 0.0 1012543
12:00+29ссз55400 0.0 10121066
15:00+31сз33380 0.0 10111273
18:00+29зсз34500 0.0 1011341
21:00+23зсз34670 0.0 101244
25 июня, пт
пт2500:00+21сз368293 0.0 1012103
03:00+21з348383 0.0 101158
06:00+22зсз257945 0.0 1012152
09:00+28сз55540 0.0 1012805
12:00+30ссз55440 0.0 10111312
15:00+31сз44420 0.0 10101563
18:00+30сз46510 0.0 1011669
21:00+24зсз47690 0.0 1011121